sat.trackr.live / text

‹ back to catalog

OPTICUBE 04

NORAD 41851 · 2016-067D

PAYLOAD ACTIVE UNKNOWN

§ Identity

Operator
Country
US
Launch date
2016-11-11
Launch site
AFWTR
Launch vehicle
Mass (kg)
RCS (m²)
0.07

Purposes: tech_demo

External: N2YO · Heavens-Above · Gunter

§ Orbital elements

Epoch: 2026-05-25T03:28:46.790400Z

Period
95.39 min
Inclination
98.0723°
Eccentricity
0.0015294
Mean motion
15.09544741 rev/d
Perigee alt
527.0 km
Apogee alt
548.2 km
Semi-major
6,915.7 km
B*
1.2415e-4
RAAN
356.2257°
Arg perigee
190.3700°
Mean anomaly
169.7214°
Rev number
52,169

§ Raw data

OPTICUBE 041 41851U 16067D   26145.14498600  .00001925  00000+0  12415-3 0  99912 41851  98.0723 356.2257 0015294 190.3700 169.7214 15.09544741521694

JSON: /api/v1/satellites/41851 · /tle

For live sub-satellite position, see the globe view (requires WebGL).

§ Visibility from observer

Set your observer location to see the next 7 days of passes ≥ 10°. The values pass through the URL so the page stays shareable.

No JS? Fill the form by hand. The geolocation button needs JavaScript.